Lambertville, MI

8:51 AM EDT on May 25, 2017 (GMT -0400)
Lambertville

Weather History for KDUH - October, 2012

Change the Weather History Date:

Monday, October 1, 2012

  Actual Average (KTOL) Record (KTOL)
Temperature  
Mean Temperature 51 °F -  
Max Temperature 64 °F 69 °F 90 °F (1897)
Min Temperature 38 °F 45 °F 29 °F (1899)
Degree Days  
Heating Degree Days 14    
Growing Degree Days 1 (Base 50)    
Moisture  
Dew Point 44 °F    
Average Humidity 71    
Maximum Humidity 93    
Minimum Humidity 48    
Precipitation  
Precipitation 0.00 in - - ()
Sea Level Pressure  
Sea Level Pressure 29.90 in    
Wind  
Wind Speed 1 mph (ENE)    
Max Wind Speed 8 mph    
Max Gust Speed -    
Visibility 8 miles    
Events Rain    
Averages and records for this station are not official NWS values.
T = Trace of Precipitation, MM = Missing Value Source: NWS Daily Summary

Daily Weather History Graph

Daily Weather History Graph

Search for Another Location

Airport or City:

Trip Planner

Search our weather history database for the weather conditions in past years. The results will help you decide how hot, cold, wet, or windy it might be!

Date:

Astronomy

Oct. 01, 2012 Rise Set
Actual Time 7:31 AM EDT 7:15 PM EDT
Civil Twilight 7:04 AM EDT 7:43 PM EDT
Nautical Twilight 6:32 AM EDT 8:15 PM EDT
Astronomical Twilight 5:59 AM EDT 8:47 PM EDT
Moon 7:49 PM EDT (10/1) 9:02 AM EDT (10/1)
Length of Visible Light 12h 38m
Length of Day
11h 43m
Full, 98% of the Moon is Illuminated
Oct 1
Full
Oct 8
Last Quarter
Oct 15
New
Oct 21
First Quarter
Oct 29
Full

Hourly Weather History & Observations

Time (EDT) Temp. Dew Point Humidity Pressure Visibility Wind Dir Wind Speed Gust Speed Precip Events Conditions
12:16 AM 42.8 °F 32.0 °F 66% - 10.0 mi Calm Calm - N/A   Clear
12:36 AM 42.8 °F 39.2 °F 87% 29.95 in - Calm Calm - N/A   Unknown
1:16 AM 41.0 °F 39.2 °F 93% - 5.0 mi Calm Calm - N/A   Clear
1:37 AM 41.0 °F 32.0 °F 70% - 7.0 mi Calm Calm - N/A   Clear
1:56 AM 42.8 °F 41.0 °F 93% - 7.0 mi Calm Calm - N/A   Clear
2:36 AM 41.0 °F 39.2 °F 93% - 7.0 mi Calm Calm - N/A   Clear
3:36 AM 41.0 °F 32.0 °F 70% - 5.0 mi Calm Calm - N/A   Clear
3:56 AM - - N/A% - 5.0 mi Calm Calm - N/A   Clear
4:16 AM 41.0 °F 32.0 °F 70% - 3.0 mi Calm Calm - N/A   Clear
4:36 AM 41.0 °F 32.0 °F 70% - 5.0 mi Calm Calm - N/A   Clear
5:17 AM 41.0 °F 32.0 °F 70% - 7.0 mi Calm Calm - N/A   Clear
5:36 AM 39.2 °F 32.0 °F 75% - 5.0 mi Calm Calm - N/A   Clear
6:38 AM 39.2 °F 32.0 °F 75% - 7.0 mi Calm Calm - N/A   Clear
6:56 AM 39.2 °F 32.0 °F 75% - 5.0 mi Calm Calm - N/A   Clear
7:16 AM 39.2 °F 37.4 °F 93% - 4.0 mi Calm Calm - N/A   Clear
7:36 AM - - N/A% - 4.0 mi Calm Calm - N/A   Clear
7:53 AM 38.7 °F 36.5 °F 92% 29.95 in 7.0 mi Calm Calm - N/A   Clear
7:55 AM 38.7 °F 36.5 °F 92% 29.95 in 5.0 mi Calm Calm - N/A   Clear
8:15 AM 40.5 °F 38.5 °F 93% 29.95 in 7.0 mi Calm Calm - N/A   Clear
8:35 AM 43.0 °F 41.0 °F 93% 29.95 in 5.0 mi Calm Calm - N/A   Clear
8:55 AM 45.5 °F 43.3 °F 92% 29.95 in 5.0 mi Calm Calm - N/A   Clear
9:15 AM 48.7 °F 46.0 °F 90% 29.95 in 7.0 mi Calm Calm - N/A   Clear
9:35 AM 50.7 °F 47.5 °F 89% 29.95 in 5.0 mi Calm Calm - N/A   Clear
9:55 AM 53.4 °F 49.1 °F 85% 29.95 in 7.0 mi Calm Calm - N/A   Clear
10:15 AM 55.6 °F 50.0 °F 81% 29.95 in 10.0 mi Calm Calm - N/A   Clear
10:35 AM 58.6 °F 50.9 °F 75% 29.95 in 10.0 mi NNE 3.5 mph - N/A   Clear
10:55 AM 59.7 °F 50.4 °F 71% 29.95 in 10.0 mi Calm Calm - N/A   Clear
11:15 AM 61.2 °F 49.8 °F 66% 29.95 in 10.0 mi NE 3.5 mph - N/A   Clear
11:35 AM 61.5 °F 49.3 °F 64% 29.94 in 10.0 mi ENE 3.5 mph - N/A   Clear
11:55 AM 63.3 °F 48.4 °F 58% 29.93 in 10.0 mi East 3.5 mph - N/A   Scattered Clouds
12:15 PM 63.1 °F 45.5 °F 53% 29.93 in 7.0 mi ESE 6.9 mph - N/A   Scattered Clouds
12:35 PM 63.5 °F 46.0 °F 53% 29.93 in 10.0 mi East 4.6 mph - N/A   Clear
12:55 PM 63.3 °F 45.3 °F 52% 29.93 in 10.0 mi East 5.8 mph - N/A   Clear
1:15 PM 63.0 °F 43.0 °F 48% 29.93 in 10.0 mi East 5.8 mph - N/A   Clear
1:35 PM 62.2 °F 43.3 °F 50% 29.92 in 10.0 mi ENE 5.8 mph - N/A   Clear
1:55 PM 61.9 °F 42.4 °F 49% 29.92 in 7.0 mi East 5.8 mph - N/A   Clear
2:15 PM 61.3 °F 42.6 °F 50% 29.91 in 5.0 mi ENE 4.6 mph - N/A   Haze
2:35 PM 62.4 °F 43.5 °F 50% 29.89 in 7.0 mi ENE 6.9 mph - N/A   Clear
2:55 PM 62.8 °F 43.9 °F 50% 29.88 in 10.0 mi East 8.1 mph - N/A   Clear
3:15 PM 63.0 °F 43.2 °F 48% 29.88 in 10.0 mi ENE 6.9 mph - N/A   Clear
4:15 PM 64.9 °F 45.9 °F 50% 29.88 in 10.0 mi SE 6.9 mph - N/A   Clear
4:35 PM 63.5 °F 45.5 °F 52% 29.87 in 10.0 mi ESE 5.8 mph - N/A   Clear
4:55 PM 62.8 °F 46.6 °F 55% 29.87 in 10.0 mi ENE 4.6 mph - N/A   Clear
5:15 PM 63.5 °F 47.3 °F 56% 29.87 in 10.0 mi ENE 3.5 mph - N/A   Clear
5:35 PM 63.3 °F 45.7 °F 53% 29.87 in 10.0 mi East 6.9 mph - N/A   Clear
5:55 PM 61.3 °F 46.4 °F 58% 29.87 in 10.0 mi ENE 3.5 mph - N/A   Clear
6:15 PM 60.8 °F 47.1 °F 61% 29.87 in 10.0 mi East 4.6 mph - N/A   Clear
6:35 PM 59.5 °F 47.5 °F 64% 29.87 in 10.0 mi Calm Calm - N/A   Clear
6:55 PM 58.6 °F 48.6 °F 69% 29.86 in 10.0 mi Calm Calm - N/A   Clear
7:15 PM 57.6 °F 49.1 °F 73% 29.87 in 10.0 mi Calm Calm - N/A   Clear
7:35 PM 56.1 °F 49.1 °F 77% 29.87 in 7.0 mi Calm Calm - N/A   Clear
7:55 PM 54.9 °F 49.1 °F 81% 29.85 in 10.0 mi Calm Calm - N/A   Clear
8:15 PM 55.9 °F 49.3 °F 78% 29.85 in 10.0 mi Calm Calm - N/A   Clear
8:35 PM 55.9 °F 49.3 °F 78% 29.85 in 10.0 mi Calm Calm - N/A   Clear
8:55 PM 56.3 °F 48.6 °F 75% 29.86 in 10.0 mi NE 3.5 mph - N/A   Clear
9:15 PM 56.5 °F 48.2 °F 74% 29.86 in 10.0 mi Calm Calm - N/A   Clear
9:35 PM 56.3 °F 48.2 °F 74% 29.86 in 10.0 mi Calm Calm - N/A   Clear
9:55 PM 56.5 °F 48.4 °F 74% 29.86 in 10.0 mi Calm Calm - N/A   Scattered Clouds
10:15 PM 56.7 °F 48.6 °F 74% 29.85 in 10.0 mi Calm Calm - N/A   Scattered Clouds
10:35 PM 55.9 °F 49.1 °F 78% 29.85 in 10.0 mi Calm Calm - N/A   Mostly Cloudy
10:55 PM 56.7 °F 49.3 °F 76% 29.86 in 10.0 mi Calm Calm - N/A   Overcast
11:15 PM 54.7 °F 50.0 °F 84% 29.86 in 10.0 mi Calm Calm - N/A Rain Light Rain
11:35 PM 55.4 °F 50.0 °F 82% 29.86 in 10.0 mi Calm Calm - N/A   Light Drizzle
11:55 PM 55.2 °F 50.2 °F 83% 29.85 in 10.0 mi Calm Calm - N/A Rain Light Rain